Weather Service Report


145 
ASUS41 KGYX 231110
RWRGYX
WEATHER ROUNDUP FOR MAINE AND NEW HAMPSHIRE
NATIONAL WEATHER SERVICE GRAY ME
700 AM EDT WED APR 23 2014

MEZ002-005-006-010-012-015-018-020-021-024-026-027-029-231200-
MAINE
  
CITY           SKY/WX    TMP DP  RH WIND       PRES   REMARKS
PORTLAND       FOG       46  45  96 N3        29.43R VSB 1/8          
SANFORD        CLOUDY    46 N/A N/A SW5       29.42R                  
BAR HARBOR     CLOUDY    45  45 100 CALM      29.42F VSB 1/4          
WISCASSET      FOG       45  45 100 CALM      29.43R VSB 1/4          
ROCKLAND       CLOUDY    45  43  93 CALM      29.42R VSB 1/4          
FRYEBURG       FOG       42  41  96 MISG      29.44R VSB 1/4          
LEWISTONAUBURN CLOUDY    45  43  93 CALM      29.43R VSB<1/4          
AUGUSTA        FOG       43  43 100 NW3       29.42S VSB<1/4          
WATERVILLE     CLOUDY    45  45 100 SW3       29.38S VSB<1/4          
BANGOR         CLOUDY    46  44  93 S3        29.42S                  
GREENVILLE       N/A     42  41  96 CALM      29.38R                  
MILLINOCKET    LGT RAIN  44  43  96 CALM      29.42S VSB 1/2          
HOULTON        RAIN      46  44  93 VRB5      29.40S FOG              
PRESQUE ISLE   CLOUDY    43  39  87 S7        29.42R                  
FRENCHVILLE    LGT RAIN  35  35 100 E9        29.40R FOG              
CARIBOU        LGT RAIN  43  42  97 SE7       29.40R FOG              
$$

NHZ002-005-008-009-011-012-014-231200-
NEW HAMPSHIRE
  
CITY           SKY/WX    TMP DP  RH WIND       PRES   REMARKS
PORTSMOUTH     PTSUNNY   51  51 100 SW6       29.43R                  
ROCHESTER      PTSUNNY   50  47  89 VRB3      29.43R FOG              
NASHUA         PTSUNNY   53  48  83 W3        29.47R                  
MANCHESTER     PTSUNNY   52  49  89 CALM      29.44R                  
CONCORD        CLOUDY    46  46 100 S3        29.45R FOG              
LACONIA        CLOUDY    45  43  93 SW7       29.45R                  
PLYMOUTH         N/A     49  48  96 W10G16    29.45R                  
BERLIN         PTSUNNY   46  41  82 NW5       29.45R                  
WHITEFIELD     CLOUDY    45  40  82 W6        29.47R                  
JAFFREY        LGT RAIN  47  42  83 VRB6      29.48R                  
LEBANON        CLOUDY    51  42  71 N8        29.48R                  
MT WASHINGTON  FOG       28  28 100 NW46        N/A  VSB 0   WCI  10  
$$

VTZ005-007-008-231200-
VERMONT
  
CITY           SKY/WX    TMP DP  RH WIND       PRES   REMARKS
ST JOHNSBURY     N/A     45  39  79 MISG      29.47S                  
MONTPELIER     CLOUDY    41  38  89 W14       29.54R                  
BURLINGTON     CLOUDY    43  40  89 N12       29.56R                  
$$

MAZ007-012-024-CTZ003-RIZ002-NYZ038-NYZ072-231200-
SOUTHERN NEW ENGLAND AND NY
  
CITY           SKY/WX    TMP DP  RH WIND       PRES   REMARKS
BOSTON         PTSUNNY   56  49  77 W8        29.46R                  
WORCESTER      MOSUNNY   47  42  83 NW17G23   29.45F                  
NANTUCKET      PTSUNNY   47  45  93 SW6       29.46S                  
PROVIDENCE     PTSUNNY   50  48  93 CALM      29.45R                  
HARTFORD       CLOUDY    47  39  74 NW12      29.51R                  
ALBANY         CLOUDY    45  36  70 NW12G20   29.57R                  
NEW YORK CITY  MOCLDY    50  34  54 W18G28    29.56R                  
$$

ANZ081-ANZ082-ANZ150-NHZ014-MEZ023>029-231200-
COASTAL MARINE OBSERVATIONS
  
STATION/POSITION TIME  TEMP    WIND        PRES    WAVE
                       AIR SEA DIR/SP/G            HT/PER
                 (UTC) (F)     (DEG/KT/KT) (MB)    (FT/S)
MOUNT DESERT ROC 1100   43                  996.4R
MATINICUS ROCK   1100   42     200/  9/  9  996.6R
PORTLAND WX BUOY 1100   43 42  360/  2/  4  996.1R   3/ 5
WELLS            1100   46 39  170/  1/  2  995.7R
ISLE OF SHOALS   1100   53     250/  8/  9  996.1R
JEFFREYS LEDGE   1100      43                N/A     3/ 8
CASHES LEDGE BUO 1100   44 42  200/  6/  8  996.0R   3/ 5
$$

.............KEY..............
   WCI - WIND CHILL
   TC  - TEMPERATURE IN CELSIUS
   VSB - VISIBILITY IN MILES
   HX  - HEAT INDEX
   FAIR- INDICATES FEW OR NO CLOUDS BELOW 12,000 FT, WITH NO 
         SIGNIFICANT WEATHER AND/OR OBSTRUCTIONS TO VISIBILITY.



Return to Home page


Western Regional Climate Center, wrcc@dri.edu